Regional Weather Roundup
Issued by NWS

Home | Current Version | Previous Version | Text Only | Print | Product List | Glossary On
Versions: 1 2 3 4 5 6 7 8 9 10 11 12 13 14 15 16 17 18 19 20 21 22 23 24 25 26 27 28 29 30 31 32 33 34 35 36 37 38 39 40 41 42 43 44 45 46 47 48 49 50
000
ASUS43 KLSX 181607
RWRMO

WEATHER SUMMARY FOR MISSOURI
NATIONAL WEATHER SERVICE SPRINGFIELD MO
1000 AM CST THU DEC 18 2014

NOTE: "FAIR" INDICATES FEW OR NO CLOUDS BELOW 12,000 FEET WITH NO
       SIGNIFICANT WEATHER AND/OR OBSTRUCTIONS TO VISIBILITY.
       CURRENT SKY AND/OR WEATHER CONDITIONS ARE NOT AVAILABLE FOR
       CHILLICOTHE AND FARMINGTON.

MOZ001>031-035>038-043-044-053-054-181700-
...NORTHERN AND WESTERN MISSOURI...

CITY           SKY/WX    TMP DP  RH WIND       PRES   REMARKS
KANSAS CTY INT LGT SNOW  29  27  92 E6        30.24R FOG     WCI  23
KANSAS C DTWN  LGT SNOW  31  28  89 NE7       30.25R VSB 1   WCI  24
LEE`S SUMMIT   LGT SNOW  30  28  92 E7        30.24R FOG     WCI  23
ST JOSEPH      LGT SNOW  29  26  89 E6        30.27R FOG     WCI  23
CHILLICOTHE      N/A     28  24  85 E6        30.28S WCI  22
KIRKSVILLE     LGT SNOW  26  24  92 E6        30.29R FOG     WCI  19

$$
MOZ066>068-077>081-088>096-101>105-181700-
...SOUTHWEST MISSOURI...

CITY           SKY/WX    TMP DP  RH WIND       PRES   REMARKS
SPRINGFIELD    CLOUDY    34  33  96 S8        30.19R WCI  27
JOPLIN         CLOUDY    37  36  96 CALM      30.21R FOG

$$
MOZ032>034-039>042-045>050-055>058-069>072-181700-
...CENTRAL MISSOURI...

CITY           SKY/WX    TMP DP  RH WIND       PRES   REMARKS
COLUMBIA       LGT SNOW  30  28  92 E9        30.26R FOG     WCI  22
JEFFERSON CITY LGT SNOW  31  28  89 E8        30.28R FOG     WCI  23
ROLLA          LGT SNOW  31  29  92 E7        30.23R VSB 3/4 WCI  24
SEDALIA        LGT SNOW  32  30  92 E7        30.25R VSB 1   WCI  26
WHITEMAN AFB   LGT SNOW  31  29  92 E5        30.24R FOG     WCI  27
WARRENSBURG    LGT SNOW  32  30  93 NE6       30.25R WCI  26
OSAGE BEACH    CLOUDY    32  28  86 E5        30.24R WCI  27

$$
MOZ051-052-059>065-181700-
...EAST CENTRAL MISSOURI...

CITY           SKY/WX    TMP DP  RH WIND       PRES   REMARKS
ST LOUIS INTL  LGT SNOW  30  25  80 NE5       30.32S WCI  25
SPIRIT OF STL  LGT SNOW  30  28  92 NE8       30.31R VSB 3/4 WCI  22
ST CHARLES     CLOUDY    29  24  82 E3        30.32R HAZE

$$
MOZ072>076-082>087-097>100-106>115-181700-
...SOUTH CENTRAL AND SOUTHEAST MISSOURI...

CITY           SKY/WX    TMP DP  RH WIND       PRES   REMARKS
CAPE GIRARDEAU CLOUDY    34  32  92 E6        30.30F FOG     WCI  29
FARMINGTON     CLOUDY    32  32 100 N6        30.28S WCI  26
POPLAR BLUFF   CLOUDY    36  32  85 E5        30.29R FOG
WEST PLAINS    CLOUDY    33  31  92 SE6       30.23F FOG     WCI  28

$$



USA.gov is the U.S. government's official web portal to all federal, state and local government web resources and services.